Miscellaneous Local Product
Issued by NWS Hastings, NE

Home | Current Version | Previous Version | Text Only | Print | Product List | Glossary Off
Versions: 1 2 3 4 5 6 7 8 9 10 11 12 13 14 15 16 17 18 19 20 21 22 23 24 25 26 27 28 29 30 31 32 33 34 35 36 37 38 39 40 41 42 43 44 45 46 47 48 49 50

476
AXUS43 KGID 232202
MISGRI

GID CWA HOURLY WEATHER ROUNDUP
NATIONAL WEATHER SERVICE HASTINGS NE
400 PM CST MON JAN 23 2017

NOTE: "FAIR" INDICATES FEW OR NO CLOUDS BELOW 12,000 FEET WITH NO
SIGNIFICANT WEATHER AND/OR OBSTRUCTIONS TO VISIBILITY.

...SOUTH CENTRAL NEBRASKA...

CITY           SKY/WX    TMP DP  RH WIND       PRES   REMARKS
GRAND ISLAND   CLOUDY    32  32 100 E13       29.70F FOG     WCI  22
HASTINGS       MOSUNNY   38  34  85 E13       29.68F FOG     WCI  30
KEARNEY        SUNNY     45  36  70 E13       29.65S
ORD            PTSUNNY   39  31  72 SE16      29.64F WCI  30
YORK           CLOUDY    36  34  93 SE8       29.73F WCI  29
AURORA         CLOUDY    32  32 100 E14       29.70F FOG     WCI  22
LEXINGTON      SUNNY     47  32  55 SE12      29.62S
HOLDREGE       SUNNY     48  32  53 SE14      29.62F
HEBRON         CLOUDY    42  34  74 E10       29.72S

...NEBRASKA PANHANDLE...

CITY           SKY/WX    TMP DP  RH WIND       PRES   REMARKS
CHADRON        SUNNY     41  28  60 NE10      29.55R
ALLIANCE       MOSUNNY   47  23  38 W7        29.53S
SCOTTSBLUFF    PTSUNNY   48  26  42 N6        29.54R
SIDNEY         CLOUDY    46  26  45 E9        29.54S

...WESTERN AND NORTH CENTRAL NEBRASKA...

CITY           SKY/WX    TMP DP  RH WIND       PRES   REMARKS
VALENTINE      MOSUNNY   46  27  47 S12       29.60S
AINSWORTH      SUNNY     43  31  62 SE10      29.61S
ONEILL         CLOUDY    35  30  81 E10       29.69S WCI  28
BROKEN BOW     SUNNY     45  34  65 S15G23    29.61R
IMPERIAL       SUNNY     47  27  45 CALM      29.56S
NORTH PLATTE   SUNNY     51  29  42 S10       29.58S
MCCOOK         SUNNY     54  31  41 S9        29.57F

...EASTERN NEBRASKA...

CITY           SKY/WX    TMP DP  RH WIND       PRES   REMARKS
NORFOLK        CLOUDY    35  28  75 SE10      29.74F WCI  27
SO SIOUX CITY  CLOUDY    34  29  82 SE9       29.82S WCI  27
TEKAMAH        MOSUNNY   34  28  79 E9        29.81F WCI  27
COLUMBUS       CLOUDY    37  30  75 E13       29.75F WCI  29
ALBION         CLOUDY    38  32  79 E12       29.71S HAZE    WCI  30
OMAHA EPPLEY   CLOUDY    36  28  73 E9        29.81F WCI  29
OFFUTT AFB     PTSUNNY   35  33  92 E5        29.81S WCI  31
MILLARD        PTSUNNY   38  31  75 SE7       29.81S WCI  33
LINCOLN        MOSUNNY   38  31  76 E10       29.78F WCI  31
NEBRASKA CITY  PTSUNNY   34  29  81 E8        29.81F WCI  28
BEATRICE       CLOUDY    39  34  80 SE9       29.76F WCI  33
FALLS CITY     MOSUNNY   37  31  78 E8        29.81F WCI  31

...NORTHERN KANSAS...

CITY           SKY/WX    TMP DP  RH WIND       PRES   REMARKS
GOODLAND       SUNNY     56  28  34 E5        29.54F
HILL CITY      SUNNY     57  31  37 S14       29.59F
NORTON         CLEAR     54  27  35 SE12      29.59S
PHILLIPSBURG   SUNNY     55  30  38 SE12      29.63S
SMITH CENTER   SUNNY     52  30  43 SE16G24   29.65S
HAYS           SUNNY     57  34  41 S17       29.61F
RUSSELL        SUNNY     54  33  45 S20       29.62F
CONCORDIA      SUNNY     53  30  41 S12       29.69F
SALINA         SUNNY     55  32  41 S15G22    29.71F
TOPEKA         SUNNY     42  35  76 E7        29.81S



USA.gov is the U.S. government's official web portal to all federal, state and local government web resources and services.